Scottsbluff, NE

10:06 PM MST on December 15, 2019 (GMT -0700)
Heilig

Weather History for KBFF - November, 2019

Change the Weather History Date:

Sunday, November 17, 2019

  Actual Average Record
Temperature  
Mean Temperature 41 °F -  
Max Temperature 57 °F 48 °F 77 °F (1999)
Min Temperature 25 °F 22 °F -8 °F (1996)
Degree Days  
Heating Degree Days 24    
Moisture  
Dew Point 29 °F    
Average Humidity 65    
Maximum Humidity 96    
Minimum Humidity 32    
Precipitation  
Precipitation 0.00 in - - ()
Sea Level Pressure  
Sea Level Pressure 30.05 in    
Wind  
Wind Speed 6 mph ()    
Max Wind Speed 16 mph    
Max Gust Speed -    
Visibility 10.0 miles    
Events Rain    
Averages and records for this station are not official NWS values.
T = Trace of Precipitation, MM = Missing Value Source: Averaged Metar Reports

Daily Weather History Graph

Daily Weather History Graph

Search for Another Location

Airport or City:

Astronomy

Nov. 17, 2019 Rise Set
Actual Time 6:46 AM MST 4:32 PM MST
Civil Twilight 6:16 AM MST 5:02 PM MST
Nautical Twilight 5:42 AM MST 5:35 PM MST
Astronomical Twilight 5:09 AM MST 6:08 PM MST
Moon 9:10 PM MST (11/17) 11:35 AM MST (11/17)
Length of Visible Light 10h 46m
Length of Day
9h 45m
Waning Gibbous, 73% of the Moon is Illuminated
Nov 17
Waning Gibbous
Nov 19
Last Quarter
Nov 26
New
Dec 3
First Quarter
Dec 11
Full

Hourly Weather History & Observations

Time (MST) Temp. Windchill Dew Point Humidity Pressure Visibility Wind Dir Wind Speed Gust Speed Precip Events Conditions
12:53 AM 28.9 °F 25.2 °F 27.0 °F 92% 30.21 in 10.0 mi North 3.5 mph - N/A   Clear
1:53 AM 27.0 °F 19.5 °F 26.1 °F 96% 30.23 in 10.0 mi NW 6.9 mph - N/A   Clear
2:53 AM 26.1 °F 19.4 °F 24.1 °F 92% 30.23 in 10.0 mi NNW 5.8 mph - N/A   Clear
3:53 AM 28.9 °F 21.9 °F 26.1 °F 89% 30.21 in 10.0 mi NW 6.9 mph - N/A   Clear
4:53 AM 25.0 °F 16.3 °F 23.0 °F 92% 30.18 in 10.0 mi NW 8.1 mph - N/A   Clear
5:53 AM 25.0 °F 19.3 °F 23.0 °F 92% 30.20 in 10.0 mi NW 4.6 mph - N/A   Clear
6:53 AM 26.1 °F 20.5 °F 23.0 °F 88% 30.19 in 10.0 mi WNW 4.6 mph - N/A   Clear
7:53 AM 30.0 °F - 26.1 °F 85% 30.18 in 10.0 mi Calm Calm - N/A   Clear
8:53 AM 37.0 °F 34.5 °F 30.9 °F 79% 30.15 in 10.0 mi NW 3.5 mph - N/A   Clear
9:53 AM 43.0 °F 40.3 °F 33.1 °F 68% 30.13 in 10.0 mi NW 4.6 mph - N/A   Clear
10:53 AM 50.0 °F - 32.0 °F 50% 30.08 in 10.0 mi WNW 9.2 mph - N/A   Clear
11:53 AM 52.0 °F - 32.0 °F 47% 30.04 in 10.0 mi WNW 12.7 mph - N/A   Clear
12:53 PM 55.9 °F - 30.0 °F 37% 30.00 in 10.0 mi WNW 13.8 mph - N/A   Clear
1:53 PM 57.9 °F - 28.0 °F 32% 29.97 in 10.0 mi WNW 16.1 mph - N/A   Clear
2:53 PM 57.0 °F - 28.9 °F 34% 29.96 in 10.0 mi WNW 12.7 mph - N/A   Overcast
4:53 PM 50.0 °F - 30.9 °F 48% 29.97 in 10.0 mi West 5.8 mph - N/A   Partly Cloudy
6:53 PM 48.0 °F - 33.1 °F 56% 29.95 in 10.0 mi West 8.1 mph - 0.00 in Rain Light Rain
7:53 PM 50.0 °F - 30.9 °F 48% 29.92 in 10.0 mi WNW 10.4 mph - 0.00 in   Mostly Cloudy
8:53 PM 52.0 °F - 30.0 °F 43% 29.88 in 10.0 mi WNW 13.8 mph - N/A   Overcast
9:53 PM 52.0 °F - 33.1 °F 49% 29.86 in 10.0 mi WNW 10.4 mph - 0.00 in   Overcast
10:53 PM 46.9 °F - 34.0 °F 61% 29.83 in 10.0 mi NW 6.9 mph - N/A   Overcast
11:53 PM 48.0 °F - 34.0 °F 58% 29.84 in 10.0 mi NW 3.5 mph - N/A   Overcast